EW3511 Weather Reports


time (UTC)temp
C
wind
direction
speed
KPH
gust
KPH
rain 1hr
cm
rain 24hr
cm
rain mn
cm
humidity
%
barometer
mb
20260901215558 14 0.0 0.0 0.00 0.00 0.00 93 1021.8
20260901214558 14 0.0 0.0 0.00 0.00 0.00 92 1021.7
20260901213558 14 0.0 0.0 0.00 0.00 0.00 92 1021.8
20260901212558 15 114 0.0 1.6 0.00 0.00 0.00 92 1021.6
20260901211559 14 0.0 0.0 0.00 0.00 0.00 92 1021.6
20260901210619 14 0.0 0.0 0.00 0.00 0.00 92 1021.7
20260901205600 15 0.0 0.0 0.00 0.00 0.00 91 1021.6
20260901204641 15 0.0 0.0 0.00 0.00 0.00 90 1021.7
20260901203533 15 0.0 0.0 0.00 0.00 0.00 90 1021.5
20260901202533 15 0.0 0.0 0.00 0.00 0.00 89 1021.4
20260901201534 15 0.0 0.0 0.00 0.00 0.00 88 1021.3
20260901200534 15 0.0 0.0 0.00 0.00 0.00 88 1021.4
20260901195554 16 0.0 0.0 0.00 0.00 0.00 87 1021.4
20260901194534 16 0.0 0.0 0.00 0.00 0.00 87 1021.3
20260901193536 16 0.0 0.0 0.00 0.00 0.00 85 1021.1
20260901192536 16 0.0 0.0 0.00 0.00 0.00 85 1021.1
20260901191536 16 0.0 0.0 0.00 0.00 0.00 83 1021.1
20260901190536 17 0.0 0.0 0.00 0.00 0.00 79 1021.1
20260901185557 17 0.0 0.0 0.00 0.00 0.00 77 1020.9
20260901184537 18 68 0.0 1.6 0.00 0.00 0.00 74 1020.8
20260901183538 18 66 0.0 1.6 0.00 0.00 0.00 75 1020.7
20260901182558 18 55 1.6 3.2 0.00 0.00 0.00 73 1020.7
20260901181558 18 64 0.0 1.6 0.00 0.00 0.00 76 1020.6
20260901180539 18 0.0 0.0 0.00 0.00 0.00 72 1020.5
20260901175540 19 0.0 0.0 0.00 0.00 0.00 71 1020.4
20260901174549 20 0.0 0.0 0.00 0.00 0.00 68 1020.3
20260901173540 20 0.0 0.0 0.00 0.00 0.00 65 1020.2
20260901172540 21 0.0 1.6 0.00 0.00 0.00 64 1020.2
20260901171557 21 52 1.6 3.2 0.00 0.00 0.00 63 1020.2
20260901170542 21 51 1.6 3.2 0.00 0.00 0.00 62 1020.1
20260901165602 22 50 1.6 4.8 0.00 0.00 0.00 62 1020.3
20260901164622 22 31 1.6 4.8 0.00 0.00 0.00 60 1020.2
20260901163543 22 68 0.0 3.2 0.00 0.00 0.00 57 1020.2
20260901162543 22 62 0.0 3.2 0.00 0.00 0.00 56 1020.2
20260901161543 23 41 1.6 4.8 0.00 0.00 0.00 53 1020.1
20260901160544 24 48 1.6 4.8 0.00 0.00 0.00 51 1020.0
20260901155544 23 49 1.6 9.7 0.00 0.00 0.00 51 1019.9
20260901154545 23 43 3.2 8.0 0.00 0.00 0.00 52 1020.0
20260901153545 23 14 3.2 8.0 0.00 0.00 0.00 52 1020.1
20260901152545 24 338 6.4 12.9 0.00 0.00 0.00 51 1020.1
20260901151546 24 338 3.2 14.5 0.00 0.00 0.00 49 1020.1
20260901150627 25 57 1.6 11.3 0.00 0.00 0.00 48 1020.0
20260901145546 25 41 3.2 11.3 0.00 0.00 0.00 49 1020.0
20260901144547 25 58 1.6 4.8 0.00 0.00 0.00 45 1020.1
20260901143547 24 58 1.6 9.7 0.00 0.00 0.00 47 1020.1
20260901142608 25 52 3.2 8.0 0.00 0.00 0.00 49 1020.2
20260901141548 24 5 4.8 14.5 0.00 0.00 0.00 50 1020.2
20260901140549 24 26 3.2 11.3 0.00 0.00 0.00 50 1020.3
20260901135609 23 35 3.2 9.7 0.00 0.00 0.00 52 1020.4
20260901134610 23 115 1.6 4.8 0.00 0.00 0.00 50 1020.4
20260901133550 23 143 1.6 4.8 0.00 0.00 0.00 49 1020.5
20260901132550 24 88 3.2 9.7 0.00 0.00 0.00 49 1020.5
20260901131611 25 141 3.2 8.0 0.00 0.00 0.00 48 1020.7
20260901130552 25 17 3.2 9.7 0.00 0.00 0.00 48 1020.9
20260901125551 25 347 4.8 11.3 0.00 0.00 0.00 49 1020.8
20260901124553 25 341 3.2 12.9 0.00 0.00 0.00 48 1020.9
20260901123553 25 316 4.8 16.1 0.00 0.00 0.00 47 1021.1
20260901122557 25 17 1.6 9.7 0.00 0.00 0.00 49 1021.1
20260901121554 25 72 1.6 8.0 0.00 0.00 0.00 49 1021.1
20260901120554 24 59 3.2 8.0 0.00 0.00 0.00 50 1021.2
20260901115609 23 50 1.6 8.0 0.00 0.00 0.00 52 1021.3
20260901114555 22 52 1.6 4.8 0.00 0.00 0.00 57 1021.4
20260901113556 22 23 3.2 9.7 0.00 0.00 0.00 56 1021.5
20260901112556 23 30 4.8 11.3 0.00 0.00 0.00 55 1021.5
20260901111636 23 98 1.6 4.8 0.00 0.00 0.00 54 1021.5
20260901110557 22 61 1.6 3.2 0.00 0.00 0.00 56 1021.6
20260901105656 22 86 1.6 4.8 0.00 0.00 0.00 55 1021.7
20260901104558 23 21 1.6 4.8 0.00 0.00 0.00 55 1021.7
20260901103557 23 29 3.2 9.7 0.00 0.00 0.00 54 1021.6
20260901102558 24 45 1.6 4.8 0.00 0.00 0.00 54 1021.8
20260901101558 23 24 3.2 8.0 0.00 0.00 0.00 56 1021.7
20260901100559 24 123 3.2 8.0 0.00 0.00 0.00 53 1021.7
20260901095559 23 173 3.2 8.0 0.00 0.00 0.00 54 1021.8
20260901094640 22 72 1.6 4.8 0.00 0.00 0.00 57 1021.8
20260901093600 22 176 1.6 8.0 0.00 0.00 0.00 58 1021.8
20260901092601 22 40 3.2 4.8 0.00 0.00 0.00 60 1021.9
20260901091601 22 354 1.6 8.0 0.00 0.00 0.00 59 1022.0
20260901090601 21 0 0.0 3.2 0.00 0.00 0.00 62 1021.9
20260901085602 22 67 1.6 4.8 0.00 0.00 0.00 61 1022.0
20260901084602 22 57 1.6 3.2 0.00 0.00 0.00 61 1022.0
20260901083603 21 90 1.6 3.2 0.00 0.00 0.00 61 1022.0
20260901082603 21 5 1.6 4.8 0.00 0.00 0.00 63 1022.0
20260901081603 21 103 1.6 4.8 0.00 0.00 0.00 64 1021.9
20260901080603 21 112 1.6 4.8 0.00 0.00 0.00 64 1021.9
20260901075604 20 107 1.6 8.0 0.00 0.00 0.00 65 1022.0
20260901074605 20 115 1.6 3.2 0.00 0.00 0.00 66 1021.9
20260901073533 20 117 3.2 8.0 0.00 0.00 0.00 68 1022.0
20260901072533 20 132 1.6 4.8 0.00 0.00 0.00 69 1022.0
20260901071554 20 113 1.6 4.8 0.00 0.00 0.00 71 1022.0
20260901070534 19 139 1.6 4.8 0.00 0.00 0.00 72 1021.9
20260901065535 18 103 1.6 3.2 0.00 0.00 0.00 71 1021.9
20260901064555 17 102 1.6 3.2 0.00 0.00 0.00 74 1021.9
20260901063536 17 119 3.2 3.2 0.00 0.00 0.00 74 1021.9
20260901062537 17 116 1.6 4.8 0.00 0.00 0.00 73 1021.9
20260901061536 17 99 0.0 3.2 0.00 0.00 0.00 77 1021.9
20260901060536 16 114 1.6 3.2 0.00 0.00 0.00 81 1022.0
20260901055557 16 110 0.0 3.2 0.00 0.00 0.00 80 1022.0
20260901054540 16 105 0.0 1.6 0.00 0.00 0.00 80 1022.0
20260901053539 15 0.0 0.0 0.00 0.00 0.00 84 1021.8
20260901052538 13 108 0.0 1.6 0.00 0.00 0.00 88 1021.7
20260901051539 13 0.0 0.0 0.00 0.00 0.00 94 1021.6
20260901050541 12 102 0.0 3.2 0.00 0.00 0.00 95 1021.6
20260901045539 11 0.0 0.0 0.00 0.00 0.00 96 1021.5
20260901044600 11 0.0 0.0 0.00 0.00 0.00 96 1021.4
20260901043601 11 0.0 0.0 0.00 0.00 0.00 96 1021.5
20260901042541 12 0.0 0.0 0.00 0.00 0.00 95 1021.5
20260901041541 12 0.0 0.0 0.00 0.00 0.00 95 1021.4
20260901040541 12 0.0 0.0 0.00 0.00 0.00 94 1021.3
20260901035542 12 0.0 0.0 0.00 0.00 0.00 94 1021.4
20260901034602 12 0.0 0.0 0.00 0.00 0.00 93 1021.4
20260901033543 13 0.0 0.0 0.00 0.00 0.00 91 1021.5
20260901032544 13 0.0 0.0 0.00 0.05 0.00 90 1021.5
20260901031544 14 0.0 0.0 0.00 0.13 0.00 88 1021.4
20260901030544 14 0.0 0.0 0.00 0.13 0.00 87 1021.4
20260901025544 14 93 0.0 1.6 0.00 0.13 0.00 87 1021.5
20260901024605 14 99 0.0 3.2 0.00 0.13 0.00 86 1021.4
20260901023547 14 101 0.0 1.6 0.00 0.13 0.00 88 1021.5
20260901022547 15 166 3.2 4.8 0.00 0.13 0.00 86 1021.5
20260901021606 15 0.0 0.0 0.00 0.13 0.00 87 1021.3
20260901020546 15 49 0.0 1.6 0.00 0.13 0.00 86 1021.3
20260901015608 15 0.0 0.0 0.00 0.13 0.00 86 1021.4
20260901014548 15 63 0.0 1.6 0.00 0.13 0.00 85 1021.4
20260901013608 15 0.0 0.0 0.00 0.13 0.00 86 1021.3
20260901012549 15 0.0 0.0 0.00 0.13 0.00 86 1021.3
20260901011550 15 0.0 0.0 0.00 0.13 0.00 85 1021.4
20260901010549 15 0.0 0.0 0.00 0.13 0.00 83 1021.4
20260901005549 15 0.0 0.0 0.00 0.13 0.00 85 1021.5
20260901004550 15 0.0 0.0 0.00 0.13 0.00 84 1021.4
20260901003550 15 73 0.0 1.6 0.00 0.13 0.00 81 1021.4
20260901002553 15 0.0 0.0 0.00 0.13 0.00 78 1021.4
20260901001551 16 79 0.0 1.6 0.00 0.13 0.00 76 1021.5
20260901000553 16 96 0.0 1.6 0.00 0.13 0.00 75 1021.5
20260831235612 16 104 0.0 3.2 0.00 0.13 0.00 75 1021.4
20260831234608 16 120 1.6 4.8 0.00 0.13 0.00 73 1021.5
20260831233613 17 124 1.6 3.2 0.00 0.13 0.00 72 1021.4
20260831232553 17 172 1.6 11.3 0.00 0.13 0.00 73 1021.4
20260831231553 17 150 1.6 4.8 0.00 0.13 0.00 72 1021.4
20260831230555 17 169 1.6 8.0 0.00 0.13 0.00 70 1021.4
20260831225555 17 168 1.6 9.7 0.00 0.13 0.00 69 1021.5
20260831224555 17 353 1.6 8.0 0.00 0.13 0.00 69 1021.4
20260831223555 18 54 3.2 9.7 0.00 0.13 0.00 69 1021.2
20260831222556 18 168 1.6 16.1 0.00 0.13 0.00 69 1021.2
20260831221617 18 230 3.2 9.7 0.00 0.13 0.00 69 1021.1
20260831220617 18 202 1.6 3.2 0.00 0.13 0.00 70 1020.9